Weather History for Burlington, CO

Change the Weather History Date:

Thursday, March 28, 2013

  Actual Average Record
Temperature  
Mean Temperature 45 °F 43 °F  
Max Temperature 61 °F 58 °F 83 °F (1962)
Min Temperature 29 °F 28 °F 0 °F (1931)
Degree Days  
Heating Degree Days 20    
Moisture  
Dew Point 33 °F    
Average Humidity 68    
Maximum Humidity 89    
Minimum Humidity 36    
Precipitation  
Precipitation 0.00 in 0.04 in 0.58 in (1981)
Month to date precipitation 0.71 0.78  
Year to date precipitation 1.20 1.58  
Sea Level Pressure  
Sea Level Pressure 30.11 in    
Wind  
Wind Speed 10 mph (SSW)    
Max Wind Speed 14 mph    
Max Gust Speed -    
Visibility 10 miles    
Events      
T = Trace of Precipitation, MM = Missing Value Source: NWS Daily Summary

Daily Weather History Graph

Daily Weather History Graph

Search for Another Location

Airport:

Trip Planner

Search our weather history database for the weather conditions in past years. The results will help you decide how hot, cold, wet, or windy it might be!

Date:

Astronomy

Mar. 28, 2013 Rise Set
Actual Time 6:39 AM MDT 7:09 PM MDT
Civil Twilight 6:12 AM MDT 7:36 PM MDT
Nautical Twilight 5:40 AM MDT 8:07 PM MDT
Astronomical Twilight 5:08 AM MDT 8:40 PM MDT
Moon 9:02 PM MDT 7:09 AM MDT
Length of Visible Light 13h 23m
Length of Day
12h 29m
Full, 98% of the Moon is Illuminated
Mar 28
Full
Apr 2
Last Quarter
Apr 10
New
Apr 18
First Quarter
Apr 25
Full

Hourly Weather History & Observations

Time (MDT) Temp. Windchill Dew Point Humidity Pressure Visibility Wind Dir Wind Speed Gust Speed Precip Events Conditions
12:53 AM 32.0 °F 23.6 °F 28.9 °F 88% 30.16 in 10.0 mi South 10.4 mph - N/A   Clear
1:53 AM 34.0 °F 26.0 °F 30.9 °F 89% 30.14 in 10.0 mi South 10.4 mph - N/A   Mostly Cloudy
2:53 AM 34.0 °F 25.0 °F 30.0 °F 85% 30.13 in 10.0 mi South 12.7 mph - N/A   Overcast
3:53 AM 35.1 °F 26.4 °F 30.9 °F 85% 30.12 in 10.0 mi South 12.7 mph - N/A   Overcast
4:53 AM 33.1 °F 23.9 °F 28.9 °F 85% 30.12 in 10.0 mi South 12.7 mph - N/A   Clear
5:53 AM 30.9 °F 22.8 °F 26.1 °F 82% 30.11 in 10.0 mi SSW 9.2 mph - N/A   Clear
6:53 AM 30.9 °F 21.2 °F 26.1 °F 82% 30.12 in 10.0 mi SSW 12.7 mph - N/A   Clear
7:53 AM 35.1 °F 28.6 °F 28.0 °F 76% 30.14 in 10.0 mi SW 8.1 mph - N/A   Clear
8:53 AM 37.0 °F 28.9 °F 30.9 °F 79% 30.14 in 10.0 mi SW 12.7 mph - N/A   Clear
9:53 AM 41.0 °F 36.4 °F 32.0 °F 70% 30.15 in 10.0 mi SSW 6.9 mph - N/A   Partly Cloudy
10:53 AM 44.1 °F 38.6 °F 35.1 °F 71% 30.14 in 10.0 mi South 10.4 mph - N/A   Clear
11:53 AM 50.0 °F - 34.0 °F 54% 30.12 in 10.0 mi SSW 13.8 mph - N/A   Clear
12:53 PM 53.1 °F - 34.0 °F 48% 30.11 in 10.0 mi SSW 9.2 mph - N/A   Clear
1:53 PM 55.0 °F - 34.0 °F 45% 30.08 in 10.0 mi SW 8.1 mph - N/A   Clear
2:53 PM 57.0 °F - 35.1 °F 44% 30.05 in 10.0 mi SSW 8.1 mph - N/A   Clear
3:53 PM 59.0 °F - 35.1 °F 41% 30.04 in 10.0 mi SSW 5.8 mph - N/A   Clear
4:53 PM 61.0 °F - 34.0 °F 36% 30.03 in 10.0 mi Calm Calm - N/A   Clear
5:53 PM 59.0 °F - 37.0 °F 44% 30.04 in 10.0 mi SSW 6.9 mph - N/A   Clear
6:53 PM 54.0 °F - 37.9 °F 55% 30.06 in 10.0 mi South 6.9 mph - N/A   Clear
7:53 PM 46.9 °F - 37.0 °F 68% 30.09 in 10.0 mi South 9.2 mph - N/A   Clear
8:53 PM 44.1 °F 38.1 °F 35.1 °F 71% 30.11 in 10.0 mi South 11.5 mph - N/A   Clear
9:53 PM 43.0 °F 36.4 °F 34.0 °F 71% 30.12 in 10.0 mi South 12.7 mph - N/A   Clear
10:53 PM 41.0 °F 33.9 °F 33.1 °F 73% 30.11 in 10.0 mi South 12.7 mph - N/A   Clear
11:53 PM 37.9 °F 30.9 °F 32.0 °F 79% 30.11 in 10.0 mi South 10.4 mph - N/A   Clear